Boulogne-sur-Mer

France     50˚43′13″N   1˚36′04″E
temp.,
°C
wind,
m/s
gust,
m/s
humid.,
%
clouds,
%
prec.,
mm/h
press.,
hPa
HPBL,
m
1 december, tue
tue101:00+9˚nnw13147582 1.2 10191284
04:00+8˚nnw13157616 0.2 10201231
07:00+9˚nnw14167656 0.3 10211396
10:00+9˚nnw14167776 0.3 10221372
13:00+10˚n13157386 0.6 10231420
16:00+10˚n11137095 0.3 10231502
19:00+9˚n11127298 0.4 10231359
22:00+9˚n111273100 0.2 10231325
2 december, wed
wed201:00+9˚n10127799 0.3 1022879
04:00+9˚n91086100 0.3 1021705
07:00+10˚ne5775100 0.7 1020900
10:00+9˚ne127868 0.1 1020333
13:00+9˚nnw128079 0.3 1018446
16:00+9˚wnw4483100 0.1 1016385
19:00+9˚w5579100 0.2 1014643
22:00+9˚w5678100 0.0 1013636
3 december, thu
thu301:00+8˚wnw5587100 0.1 1011430
04:00+8˚wnw7779100 0.1 1008737
07:00+8˚w5663100 0.1 1005941
10:00+8˚sw4567100 0.0 1002910
13:00+7˚ssw81089100 2.1 998818
16:00+7˚s6890100 5.6 994633
19:00+7˚wsw6789100 12.6 991710
22:00+7˚ssw6887100 6.3 989806
4 december, fri
fri401:00+7˚sse8885100 8.1 986656
04:00+6˚ese6789100 0.1 983522
07:00+6˚e6790100 0.5 981489
10:00+6˚e6791100 3.3 981532
13:00+6˚ene3391100 6.7 981310
16:00+6˚nw1187100 0.7 981305
19:00+6˚se218398 1.2 982303
22:00+6˚se028294 0.4 984274
5 december, sat
sat501:00+7˚sw458595 1.4 984516
04:00+7˚s678299 0.3 985756
07:00+6˚se9108999 0.6 987686
10:00+5˚se8987100 0.3 989592
13:00+4˚ese6687100 0.3 990566
16:00+5˚ese6785100 0.1 992456
19:00+5˚ese5680100 0.1 995461
22:00+4˚e4481100 0.0 997325